Location: Oshawa
(43.9000°N, 78.8670°W)
Time: 07:24:39
(UTC-05:00)

Cosmos 839 Rocket - Visible Passes

Search period start: 27 January 2015 00:00
Search period end: 06 February 2015 00:00
Orbit: 967 x 2086 km, 65.9° (Epoch: 24 January)

Date Brightness Start Highest point End Pass type
(mag) Time Alt. Az. Time Alt. Az. Time Alt. Az.
27 Jan 4.9 18:07:07 10° NNW 18:13:58 46° NE 18:22:32 10° ESE visible
27 Jan 5.5 20:07:02 10° NW 20:14:16 47° WSW 20:23:16 10° S visible
28 Jan 5.0 19:24:57 10° NW 19:32:23 68° WSW 19:41:50 10° SSE visible
28 Jan 7.1 21:28:02 10° WNW 21:32:01 13° WSW 21:35:40 10° SW visible
29 Jan 4.7 18:43:01 10° NNW 18:50:26 87° ENE 18:59:57 10° SSE visible
29 Jan 6.7 20:44:19 10° WNW 20:50:18 22° WSW 20:56:49 10° SSW visible
30 Jan 4.7 18:01:11 10° NNW 18:08:25 63° NE 18:17:38 10° SE visible
30 Jan 6.3 20:01:37 10° NW 20:08:29 33° WSW 20:16:39 10° S visible
31 Jan 5.7 19:19:19 10° NW 19:26:38 48° WSW 19:35:44 10° S visible
01 Feb 5.1 18:37:14 10° NW 18:44:44 69° WSW 18:54:17 10° SSE visible
01 Feb 7.3 20:40:10 10° WNW 20:44:23 14° WSW 20:48:20 10° SW visible
02 Feb 4.8 17:55:19 10° NNW 18:02:47 86° NE 18:12:23 10° SSE visible
02 Feb 6.9 19:56:34 10° WNW 20:02:39 23° WSW 20:09:22 10° SSW visible
03 Feb 6.4 19:13:53 10° NW 19:20:52 34° WSW 19:29:08 10° S visible
04 Feb 5.8 18:31:36 10° NW 18:39:00 49° WSW 18:48:13 10° S visible
05 Feb 5.3 17:49:32 10° NW 17:57:06 70° WSW 18:06:44 10° SSE visible
05 Feb 7.6 19:52:19 10° WNW 19:56:46 14° WSW 20:00:59 10° SW visible
